Time,TemperatureF,DewpointF,PressureIn,WindDirection,WindDirectionDegrees,WindSpeedMPH,WindSpeedGustMPH,Humidity,HourlyPrecipIn,Conditions,Clouds,dailyrainin,SolarRadiationWatts/m^2,SoftwareType,DateUTC
2013-01-26 00:01:00,62.6,60.6,30.17,ESE,122,0.0,0.0,93,0.00,,,0.01,0.0,meteohub,2013-01-26 06:01:00,
2013-01-26 00:06:00,63.0,61.0,30.17,ESE,122,0.0,0.0,93,0.00,,,0.01,0.0,meteohub,2013-01-26 06:06:00,
2013-01-26 00:11:00,63.1,61.2,30.17,ESE,122,0.0,0.0,93,0.00,,,0.00,0.0,meteohub,2013-01-26 06:11:00,
2013-01-26 00:16:00,63.0,60.6,30.17,ESE,122,0.0,0.0,92,0.00,,,0.00,0.0,meteohub,2013-01-26 06:16:00,
2013-01-26 00:21:00,63.0,60.6,30.17,ESE,122,0.0,0.0,92,0.00,,,0.00,0.0,meteohub,2013-01-26 06:21:00,
2013-01-26 00:26:00,62.8,60.4,30.17,ESE,122,0.0,0.0,92,0.00,,,0.00,0.0,meteohub,2013-01-26 06:26:00,
2013-01-26 00:31:00,62.6,60.6,30.17,ESE,122,0.0,0.0,93,0.00,,,0.00,0.0,meteohub,2013-01-26 06:31:00,
2013-01-26 00:36:00,62.4,60.4,30.17,ESE,122,0.0,0.0,93,0.00,,,0.00,0.0,meteohub,2013-01-26 06:36:00,
2013-01-26 00:41:00,62.2,59.9,30.17,ESE,122,0.0,0.0,92,0.00,,,0.00,0.0,meteohub,2013-01-26 06:41:00,
2013-01-26 00:46:00,62.1,59.7,30.17,ESE,122,0.0,2.0,92,0.00,,,0.00,0.0,meteohub,2013-01-26 06:46:00,
2013-01-26 00:51:00,61.9,59.5,30.17,ESE,122,0.0,2.0,92,0.00,,,0.00,0.0,meteohub,2013-01-26 06:51:00,
2013-01-26 00:56:00,61.7,59.4,30.18,ESE,122,0.0,2.0,92,0.00,,,0.00,0.0,meteohub,2013-01-26 06:56:00,
2013-01-26 01:01:00,61.5,58.8,30.18,ESE,122,0.0,2.0,91,0.00,,,0.00,0.0,meteohub,2013-01-26 07:01:00,
2013-01-26 01:06:00,61.3,58.6,30.18,ESE,122,0.0,0.0,91,0.00,,,0.00,0.0,meteohub,2013-01-26 07:06:00,
2013-01-26 01:11:00,61.2,58.3,30.18,ESE,122,0.0,0.0,90,0.00,,,0.00,0.0,meteohub,2013-01-26 07:11:00,
2013-01-26 01:16:00,61.0,58.1,30.18,ESE,122,0.0,0.0,90,0.00,,,0.00,0.0,meteohub,2013-01-26 07:16:00,
2013-01-26 01:21:00,60.8,57.6,30.18,ESE,122,0.0,0.0,89,0.00,,,0.00,0.0,meteohub,2013-01-26 07:21:00,
2013-01-26 01:26:00,60.6,57.4,30.18,ESE,122,0.0,2.0,89,0.00,,,0.00,0.0,meteohub,2013-01-26 07:26:00,
2013-01-26 01:31:00,60.4,57.2,30.18,ESE,122,0.0,2.0,89,0.00,,,0.00,0.0,meteohub,2013-01-26 07:31:00,
2013-01-26 01:36:00,60.3,56.7,30.18,ESE,122,0.0,2.0,88,0.00,,,0.00,0.0,meteohub,2013-01-26 07:36:00,
2013-01-26 01:41:00,60.1,56.5,30.17,ESE,122,0.0,2.0,88,0.00,,,0.00,0.0,meteohub,2013-01-26 07:41:00,
2013-01-26 01:46:00,59.9,56.3,30.18,ESE,122,0.0,1.0,88,0.00,,,0.00,0.0,meteohub,2013-01-26 07:46:00,
2013-01-26 01:51:00,59.7,55.8,30.18,ESE,122,0.0,1.0,87,0.00,,,0.00,0.0,meteohub,2013-01-26 07:51:00,
2013-01-26 01:56:00,59.7,55.8,30.17,ESE,119,0.0,3.0,87,0.00,,,0.00,0.0,meteohub,2013-01-26 07:56:00,
2013-01-26 02:01:00,59.7,55.8,30.18,ESE,120,0.0,3.0,87,0.00,,,0.00,0.0,meteohub,2013-01-26 08:01:00,
2013-01-26 02:06:00,59.7,55.8,30.17,ESE,107,0.0,3.0,87,0.00,,,0.00,0.0,meteohub,2013-01-26 08:06:00,
2013-01-26 02:11:00,59.7,55.8,30.17,ESE,108,0.0,3.0,87,0.00,,,0.00,0.0,meteohub,2013-01-26 08:11:00,
2013-01-26 02:16:00,59.7,55.8,30.17,North,2,0.0,3.0,87,0.00,,,0.00,0.0,meteohub,2013-01-26 08:16:00,
2013-01-26 02:21:00,59.5,55.6,30.18,North,2,1.0,3.0,87,0.00,,,0.00,0.0,meteohub,2013-01-26 08:21:00,
2013-01-26 02:26:00,59.5,55.6,30.18,North,3,0.0,2.0,87,0.00,,,0.00,0.0,meteohub,2013-01-26 08:26:00,
2013-01-26 02:32:00,59.5,55.6,30.18,North,3,0.0,2.0,87,0.00,,,0.00,0.0,meteohub,2013-01-26 08:32:00,
2013-01-26 02:37:00,59.4,55.4,30.18,North,3,0.0,2.0,87,0.00,,,0.00,0.0,meteohub,2013-01-26 08:37:00,
2013-01-26 02:42:00,59.0,55.2,30.18,North,3,0.0,2.0,87,0.00,,,0.00,0.0,meteohub,2013-01-26 08:42:00,
2013-01-26 02:47:00,59.0,55.2,30.18,North,3,0.0,2.0,87,0.00,,,0.00,0.0,meteohub,2013-01-26 08:47:00,
2013-01-26 02:52:00,59.0,55.2,30.17,North,3,0.0,2.0,87,0.00,,,0.00,0.0,meteohub,2013-01-26 08:52:00,
2013-01-26 02:57:00,59.0,55.8,30.18,North,7,0.0,2.0,89,0.00,,,0.00,0.0,meteohub,2013-01-26 08:57:00,
2013-01-26 03:02:00,58.8,55.0,30.18,North,8,0.0,2.0,87,0.00,,,0.00,0.0,meteohub,2013-01-26 09:02:00,
2013-01-26 03:07:00,58.6,54.9,30.18,North,8,0.0,2.0,87,0.00,,,0.00,0.0,meteohub,2013-01-26 09:07:00,
2013-01-26 03:12:00,58.6,54.9,30.18,North,7,0.0,2.0,87,0.00,,,0.00,0.0,meteohub,2013-01-26 09:12:00,
2013-01-26 03:17:00,58.5,54.7,30.18,North,7,0.0,2.0,87,0.00,,,0.00,0.0,meteohub,2013-01-26 09:17:00,
2013-01-26 03:22:00,58.5,54.7,30.18,North,8,0.0,2.0,87,0.00,,,0.00,0.0,meteohub,2013-01-26 09:22:00,
2013-01-26 03:27:00,58.3,54.5,30.18,North,8,0.0,1.0,87,0.00,,,0.00,0.0,meteohub,2013-01-26 09:27:00,
2013-01-26 03:32:00,58.1,54.3,30.18,North,8,0.0,1.0,87,0.00,,,0.00,0.0,meteohub,2013-01-26 09:32:00,
2013-01-26 03:37:00,57.9,54.1,30.18,North,8,0.0,1.0,87,0.00,,,0.00,0.0,meteohub,2013-01-26 09:37:00,
2013-01-26 03:42:00,57.9,54.1,30.18,North,7,0.0,1.0,87,0.00,,,0.00,0.0,meteohub,2013-01-26 09:42:00,
2013-01-26 03:47:00,57.9,54.1,30.18,North,7,0.0,1.0,87,0.00,,,0.00,0.0,meteohub,2013-01-26 09:47:00,
2013-01-26 03:52:00,57.9,54.1,30.17,North,7,0.0,1.0,87,0.00,,,0.00,0.0,meteohub,2013-01-26 09:52:00,
2013-01-26 03:57:00,57.9,54.1,30.17,North,8,0.0,1.0,87,0.00,,,0.00,0.0,meteohub,2013-01-26 09:57:00,
2013-01-26 04:02:00,57.9,54.1,30.17,North,8,0.0,1.0,87,0.00,,,0.00,0.0,meteohub,2013-01-26 10:02:00,
2013-01-26 04:07:00,57.9,54.1,30.17,North,8,0.0,1.0,87,0.00,,,0.00,0.0,meteohub,2013-01-26 10:07:00,
2013-01-26 04:12:00,57.9,54.1,30.17,North,8,0.0,1.0,87,0.00,,,0.00,0.0,meteohub,2013-01-26 10:12:00,
2013-01-26 04:17:00,57.9,54.1,30.17,North,7,0.0,2.0,87,0.00,,,0.00,0.0,meteohub,2013-01-26 10:17:00,
2013-01-26 04:22:00,57.9,54.1,30.17,North,7,0.0,2.0,87,0.00,,,0.00,0.0,meteohub,2013-01-26 10:22:00,
2013-01-26 04:27:00,57.9,54.1,30.17,North,9,0.0,1.0,87,0.00,,,0.00,0.0,meteohub,2013-01-26 10:27:00,
2013-01-26 04:32:00,57.7,54.0,30.17,North,10,0.0,1.0,87,0.00,,,0.00,0.0,meteohub,2013-01-26 10:32:00,
2013-01-26 04:37:00,57.7,54.0,30.17,North,10,0.0,1.0,87,0.00,,,0.00,0.0,meteohub,2013-01-26 10:37:00,
2013-01-26 04:42:00,57.7,54.0,30.17,NNE,18,0.0,1.0,87,0.00,,,0.00,0.0,meteohub,2013-01-26 10:42:00,
2013-01-26 04:47:00,57.7,54.1,30.17,NNE,21,0.0,3.0,88,0.00,,,0.00,0.0,meteohub,2013-01-26 10:47:00,
2013-01-26 04:52:00,57.7,54.0,30.17,NNE,21,0.0,3.0,87,0.00,,,0.00,0.0,meteohub,2013-01-26 10:52:00,
2013-01-26 04:57:00,57.6,53.8,30.17,NE,34,0.0,4.0,87,0.00,,,0.00,0.0,meteohub,2013-01-26 10:57:00,
2013-01-26 05:02:00,57.6,54.0,30.17,NE,34,0.0,4.0,88,0.00,,,0.00,0.0,meteohub,2013-01-26 11:02:00,
2013-01-26 05:07:00,57.6,54.0,30.17,NE,34,0.0,4.0,88,0.00,,,0.00,0.0,meteohub,2013-01-26 11:07:00,
2013-01-26 05:12:00,57.6,54.0,30.17,NE,34,0.0,3.0,88,0.00,,,0.00,0.0,meteohub,2013-01-26 11:12:00,
2013-01-26 05:17:00,57.6,54.0,30.17,NE,34,0.0,3.0,88,0.00,,,0.00,0.0,meteohub,2013-01-26 11:17:00,
2013-01-26 05:22:00,57.6,54.0,30.17,NE,34,0.0,3.0,88,0.00,,,0.00,0.0,meteohub,2013-01-26 11:22:00,
2013-01-26 05:27:00,57.6,54.0,30.18,NE,34,0.0,3.0,88,0.00,,,0.00,0.0,meteohub,2013-01-26 11:27:00,
2013-01-26 05:32:00,57.6,54.0,30.18,NE,34,0.0,2.0,88,0.00,,,0.00,0.0,meteohub,2013-01-26 11:32:00,
2013-01-26 05:37:00,57.6,54.3,30.18,NNE,33,3.0,3.0,89,0.00,,,0.00,0.0,meteohub,2013-01-26 11:37:00,
2013-01-26 05:42:00,57.4,54.1,30.18,NNE,33,0.0,2.0,89,0.00,,,0.00,0.0,meteohub,2013-01-26 11:42:00,
2013-01-26 05:47:00,57.2,54.3,30.18,NNE,33,0.0,3.0,90,0.00,,,0.00,0.0,meteohub,2013-01-26 11:47:00,
2013-01-26 05:52:00,57.0,54.1,30.18,NNE,22,0.0,3.0,90,0.00,,,0.00,0.0,meteohub,2013-01-26 11:52:00,
2013-01-26 05:57:00,56.8,54.0,30.19,NNE,18,0.0,3.0,90,0.00,,,0.00,0.0,meteohub,2013-01-26 11:57:00,
2013-01-26 06:02:00,56.8,54.3,30.19,NNE,23,2.0,4.0,91,0.00,,,0.00,0.0,meteohub,2013-01-26 12:02:00,
2013-01-26 06:07:00,56.7,54.1,30.18,NE,42,0.0,4.0,91,0.00,,,0.00,0.0,meteohub,2013-01-26 12:07:00,
2013-01-26 06:12:00,56.5,54.1,30.19,NNE,32,1.0,4.0,92,0.00,,,0.00,0.0,meteohub,2013-01-26 12:12:00,
2013-01-26 06:17:00,56.1,53.8,30.19,NNE,32,2.0,4.0,92,0.00,,,0.00,0.0,meteohub,2013-01-26 12:17:00,
2013-01-26 06:22:00,55.9,53.6,30.19,NNE,30,0.0,4.0,92,0.00,,,0.00,0.0,meteohub,2013-01-26 12:22:00,
2013-01-26 06:27:00,55.9,54.0,30.19,NNE,17,0.0,4.0,93,0.00,,,0.00,0.0,meteohub,2013-01-26 12:27:00,
2013-01-26 06:32:00,55.9,54.0,30.19,NNE,17,0.0,4.0,93,0.00,,,0.00,0.0,meteohub,2013-01-26 12:32:00,
2013-01-26 06:37:00,55.8,53.8,30.19,NNE,17,0.0,4.0,93,0.00,,,0.00,0.0,meteohub,2013-01-26 12:37:00,
2013-01-26 06:42:00,55.8,53.8,30.20,NNE,17,0.0,4.0,93,0.00,,,0.00,0.0,meteohub,2013-01-26 12:42:00,
2013-01-26 06:47:00,55.8,53.8,30.20,NNE,17,0.0,3.0,93,0.00,,,0.00,0.0,meteohub,2013-01-26 12:47:00,
2013-01-26 06:52:00,55.8,54.1,30.21,NE,39,0.0,3.0,94,0.00,,,0.00,0.0,meteohub,2013-01-26 12:52:00,
2013-01-26 06:57:00,55.6,54.0,30.20,NE,36,2.0,3.0,94,0.00,,,0.00,0.0,meteohub,2013-01-26 12:57:00,
2013-01-26 07:03:00,55.4,53.8,30.20,NE,36,0.0,4.0,94,0.00,,,0.00,0.0,meteohub,2013-01-26 13:03:00,
2013-01-26 07:08:00,55.2,53.6,30.21,NE,36,1.0,4.0,94,0.00,,,0.00,0.0,meteohub,2013-01-26 13:08:00,
2013-01-26 07:13:00,55.2,53.6,30.20,North,359,2.0,3.0,94,0.00,,,0.00,0.0,meteohub,2013-01-26 13:13:00,
2013-01-26 07:18:00,55.0,53.4,30.20,North,0,0.0,3.0,94,0.00,,,0.00,0.0,meteohub,2013-01-26 13:18:00,
2013-01-26 07:23:00,55.0,53.4,30.20,North,0,0.0,4.0,94,0.00,,,0.00,5.0,meteohub,2013-01-26 13:23:00,
2013-01-26 07:28:00,54.9,53.4,30.20,North,0,0.0,4.0,95,0.00,,,0.00,7.0,meteohub,2013-01-26 13:28:00,
2013-01-26 07:33:00,54.9,53.4,30.21,North,0,0.0,3.0,95,0.00,,,0.00,11.0,meteohub,2013-01-26 13:33:00,
2013-01-26 07:38:00,54.7,53.2,30.21,North,4,0.0,3.0,95,0.00,,,0.00,19.0,meteohub,2013-01-26 13:38:00,
2013-01-26 07:43:00,54.7,53.2,30.21,North,4,0.0,3.0,95,0.00,,,0.00,14.0,meteohub,2013-01-26 13:43:00,
2013-01-26 07:48:00,54.7,53.2,30.21,North,4,1.0,2.0,95,0.00,,,0.00,18.0,meteohub,2013-01-26 13:48:00,
2013-01-26 07:53:00,54.7,53.2,30.21,NNE,31,2.0,2.0,95,0.00,,,0.00,23.0,meteohub,2013-01-26 13:53:00,
2013-01-26 07:58:00,54.5,53.1,30.21,NNE,17,1.0,2.0,95,0.00,,,0.00,26.0,meteohub,2013-01-26 13:58:00,
2013-01-26 08:03:00,54.5,53.1,30.21,NNE,25,0.0,5.0,95,0.00,,,0.00,28.0,meteohub,2013-01-26 14:03:00,
2013-01-26 08:08:00,54.5,53.1,30.21,NNE,15,3.0,5.0,95,0.00,,,0.00,37.0,meteohub,2013-01-26 14:08:00,
2013-01-26 08:13:00,54.3,52.9,30.20,North,10,0.0,5.0,95,0.00,,,0.00,46.0,meteohub,2013-01-26 14:13:00,
2013-01-26 08:18:00,54.5,53.1,30.21,NNE,30,0.0,5.0,95,0.00,,,0.00,56.0,meteohub,2013-01-26 14:18:00,
2013-01-26 08:23:00,54.5,53.4,30.21,NNE,19,0.0,5.0,96,0.00,,,0.00,63.0,meteohub,2013-01-26 14:23:00,
2013-01-26 08:28:00,54.7,53.6,30.21,NNE,29,2.0,5.0,96,0.00,,,0.00,90.0,meteohub,2013-01-26 14:28:00,
2013-01-26 08:33:00,54.9,53.8,30.22,NE,34,0.0,4.0,96,0.00,,,0.00,77.0,meteohub,2013-01-26 14:33:00,
2013-01-26 08:38:00,55.0,53.6,30.22,NE,34,0.0,4.0,95,0.00,,,0.00,86.0,meteohub,2013-01-26 14:38:00,
2013-01-26 08:43:00,55.2,53.8,30.22,NE,34,0.0,4.0,95,0.00,,,0.00,100.0,meteohub,2013-01-26 14:43:00,
2013-01-26 08:48:00,55.4,54.0,30.22,NNE,33,0.0,3.0,95,0.00,,,0.00,100.0,meteohub,2013-01-26 14:48:00,
2013-01-26 08:53:00,55.6,54.1,30.22,NNE,27,0.0,3.0,95,0.00,,,0.00,95.0,meteohub,2013-01-26 14:53:00,
2013-01-26 08:58:00,55.8,54.3,30.22,NE,43,0.0,3.0,95,0.00,,,0.00,116.0,meteohub,2013-01-26 14:58:00,
2013-01-26 09:03:00,56.1,54.7,30.22,NE,34,0.0,4.0,95,0.00,,,0.00,160.0,meteohub,2013-01-26 15:03:00,
2013-01-26 09:08:00,56.5,54.9,30.22,NE,44,2.0,4.0,94,0.00,,,0.00,179.0,meteohub,2013-01-26 15:08:00,
2013-01-26 09:13:00,57.0,55.2,30.22,NE,36,0.0,3.0,94,0.00,,,0.00,188.0,meteohub,2013-01-26 15:13:00,
2013-01-26 09:18:00,57.2,55.2,30.22,NNE,33,0.0,3.0,93,0.00,,,0.00,174.0,meteohub,2013-01-26 15:18:00,
2013-01-26 09:23:00,57.6,55.2,30.22,NNE,28,0.0,3.0,92,0.00,,,0.00,158.0,meteohub,2013-01-26 15:23:00,
2013-01-26 09:28:00,57.7,55.2,30.22,NE,36,3.0,3.0,91,0.00,,,0.00,195.0,meteohub,2013-01-26 15:28:00,
2013-01-26 09:33:00,58.3,55.6,30.22,NNE,20,1.0,3.0,91,0.00,,,0.00,193.0,meteohub,2013-01-26 15:33:00,
2013-01-26 09:38:00,58.5,55.6,30.23,NNE,18,0.0,3.0,90,0.00,,,0.00,153.0,meteohub,2013-01-26 15:38:00,
2013-01-26 09:43:00,58.6,55.8,30.23,NNE,27,4.0,4.0,90,0.00,,,0.00,139.0,meteohub,2013-01-26 15:43:00,
2013-01-26 09:48:00,58.6,55.8,30.23,NNE,21,3.0,4.0,90,0.00,,,0.00,123.0,meteohub,2013-01-26 15:48:00,
2013-01-26 09:53:00,58.6,55.8,30.23,NNE,30,0.0,5.0,90,0.00,,,0.00,137.0,meteohub,2013-01-26 15:53:00,
2013-01-26 09:58:00,58.8,55.9,30.23,NE,36,0.0,5.0,90,0.00,,,0.00,120.0,meteohub,2013-01-26 15:58:00,
2013-01-26 10:04:00,58.8,55.9,30.24,NE,36,0.0,5.0,90,0.00,,,0.00,102.0,meteohub,2013-01-26 16:04:00,
2013-01-26 10:09:00,59.0,56.1,30.24,NNE,33,0.0,5.0,90,0.00,,,0.00,113.0,meteohub,2013-01-26 16:09:00,
2013-01-26 10:14:00,59.0,56.1,30.24,NNE,29,0.0,5.0,90,0.00,,,0.00,123.0,meteohub,2013-01-26 16:14:00,
2013-01-26 10:19:00,59.4,56.5,30.24,NE,39,0.0,4.0,90,0.00,,,0.00,220.0,meteohub,2013-01-26 16:19:00,
2013-01-26 10:24:00,60.1,57.2,30.24,NE,38,0.0,4.0,90,0.00,,,0.00,195.0,meteohub,2013-01-26 16:24:00,
2013-01-26 10:29:00,60.1,56.8,30.24,NE,36,0.0,5.0,89,0.00,,,0.00,151.0,meteohub,2013-01-26 16:29:00,
2013-01-26 10:34:00,60.1,56.8,30.24,NNE,27,0.0,5.0,89,0.00,,,0.00,229.0,meteohub,2013-01-26 16:34:00,
2013-01-26 10:39:00,60.6,57.0,30.24,NNE,13,0.0,5.0,88,0.00,,,0.00,281.0,meteohub,2013-01-26 16:39:00,
2013-01-26 10:44:00,61.2,57.6,30.24,NNE,30,2.0,4.0,88,0.00,,,0.00,237.0,meteohub,2013-01-26 16:44:00,
2013-01-26 10:49:00,61.2,57.6,30.24,NNE,28,0.0,4.0,88,0.00,,,0.00,200.0,meteohub,2013-01-26 16:49:00,
2013-01-26 10:54:00,61.5,57.9,30.23,NE,45,0.0,5.0,88,0.00,,,0.00,183.0,meteohub,2013-01-26 16:54:00,
2013-01-26 10:59:00,61.5,57.6,30.23,NE,39,1.0,5.0,87,0.00,,,0.00,181.0,meteohub,2013-01-26 16:59:00,
2013-01-26 11:04:00,61.5,57.9,30.23,NE,38,0.0,5.0,88,0.00,,,0.00,160.0,meteohub,2013-01-26 17:04:00,
2013-01-26 11:09:00,61.5,57.6,30.23,NE,36,0.0,5.0,87,0.00,,,0.00,162.0,meteohub,2013-01-26 17:09:00,
2013-01-26 11:14:00,61.7,57.7,30.23,NE,37,0.0,5.0,87,0.00,,,0.00,160.0,meteohub,2013-01-26 17:14:00,
2013-01-26 11:19:00,61.9,57.9,30.23,NE,36,0.0,3.0,87,0.00,,,0.00,162.0,meteohub,2013-01-26 17:19:00,
2013-01-26 11:24:00,61.9,57.9,30.23,NE,36,0.0,3.0,87,0.00,,,0.00,185.0,meteohub,2013-01-26 17:24:00,
2013-01-26 11:29:00,62.4,58.5,30.23,NE,36,0.0,2.0,87,0.00,,,0.00,213.0,meteohub,2013-01-26 17:29:00,
2013-01-26 11:34:00,63.0,59.0,30.22,NE,36,0.0,2.0,87,0.00,,,0.00,223.0,meteohub,2013-01-26 17:34:00,
2013-01-26 11:39:00,63.0,59.0,30.22,NE,36,3.0,3.0,87,0.00,,,0.00,204.0,meteohub,2013-01-26 17:39:00,
2013-01-26 11:44:00,63.3,59.4,30.22,NE,55,0.0,3.0,87,0.00,,,0.00,181.0,meteohub,2013-01-26 17:44:00,
2013-01-26 11:49:00,63.3,59.4,30.22,NE,47,1.0,3.0,87,0.00,,,0.00,181.0,meteohub,2013-01-26 17:49:00,
2013-01-26 11:54:00,63.5,59.5,30.22,NE,40,0.0,5.0,87,0.00,,,0.00,188.0,meteohub,2013-01-26 17:54:00,
2013-01-26 11:59:00,63.9,59.5,30.22,ENE,65,0.0,5.0,86,0.00,,,0.00,216.0,meteohub,2013-01-26 17:59:00,
2013-01-26 12:04:00,64.0,59.7,30.22,NE,39,3.0,5.0,86,0.00,,,0.00,301.0,meteohub,2013-01-26 18:04:00,
2013-01-26 12:09:00,64.2,59.9,30.21,NNE,24,1.0,6.0,86,0.00,,,0.00,200.0,meteohub,2013-01-26 18:09:00,
2013-01-26 12:14:00,64.4,60.1,30.21,North,352,0.0,6.0,86,0.00,,,0.00,218.0,meteohub,2013-01-26 18:14:00,
2013-01-26 12:19:00,64.6,60.3,30.21,North,354,0.0,4.0,86,0.00,,,0.00,169.0,meteohub,2013-01-26 18:19:00,
2013-01-26 12:24:00,64.9,60.6,30.20,NNE,29,1.0,4.0,86,0.00,,,0.00,148.0,meteohub,2013-01-26 18:24:00,
2013-01-26 12:29:00,64.9,60.3,30.20,ENE,64,0.0,4.0,85,0.00,,,0.00,167.0,meteohub,2013-01-26 18:29:00,
2013-01-26 12:34:00,65.5,60.8,30.19,North,11,2.0,4.0,85,0.00,,,0.00,181.0,meteohub,2013-01-26 18:34:00,
2013-01-26 12:39:00,65.7,61.3,30.19,NNE,21,2.0,5.0,86,0.00,,,0.00,306.0,meteohub,2013-01-26 18:39:00,
2013-01-26 12:44:00,66.0,61.3,30.19,NNE,29,0.0,5.0,85,0.00,,,0.00,195.0,meteohub,2013-01-26 18:44:00,
2013-01-26 12:49:00,66.9,62.2,30.19,East,94,0.0,5.0,85,0.00,,,0.00,250.0,meteohub,2013-01-26 18:49:00,
2013-01-26 12:54:00,68.5,62.8,30.18,ESE,102,3.0,10.0,82,0.00,,,0.00,613.0,meteohub,2013-01-26 18:54:00,
2013-01-26 12:59:00,69.1,62.6,30.18,NE,49,0.0,10.0,80,0.00,,,0.00,701.0,meteohub,2013-01-26 18:59:00,
2013-01-26 13:04:00,68.7,62.2,30.18,NE,52,0.0,5.0,80,0.00,,,0.00,292.0,meteohub,2013-01-26 19:04:00,
2013-01-26 13:09:00,68.9,62.4,30.18,ENE,73,0.0,5.0,80,0.00,,,0.00,258.0,meteohub,2013-01-26 19:09:00,
2013-01-26 13:14:00,69.3,63.1,30.18,ESE,104,0.0,5.0,81,0.00,,,0.00,867.0,meteohub,2013-01-26 19:14:00,
2013-01-26 13:19:00,70.3,63.1,30.17,NE,40,0.0,5.0,78,0.00,,,0.00,745.0,meteohub,2013-01-26 19:19:00,
2013-01-26 13:24:00,70.9,63.3,30.17,North,6,5.0,5.0,77,0.00,,,0.00,659.0,meteohub,2013-01-26 19:24:00,
2013-01-26 13:29:00,70.7,62.8,30.17,East,100,3.0,5.0,76,0.00,,,0.00,550.0,meteohub,2013-01-26 19:29:00,
2013-01-26 13:34:00,71.1,62.8,30.16,ENE,67,0.0,6.0,75,0.00,,,0.00,541.0,meteohub,2013-01-26 19:34:00,
2013-01-26 13:39:00,71.1,62.8,30.16,ESE,113,7.0,7.0,75,0.00,,,0.00,443.0,meteohub,2013-01-26 19:39:00,
2013-01-26 13:44:00,71.1,62.8,30.16,NE,37,1.0,7.0,75,0.00,,,0.00,582.0,meteohub,2013-01-26 19:44:00,
2013-01-26 13:49:00,71.6,62.4,30.16,SE,129,0.0,7.0,73,0.00,,,0.00,508.0,meteohub,2013-01-26 19:49:00,
2013-01-26 13:54:00,71.4,62.8,30.16,SE,127,0.0,7.0,74,0.00,,,0.00,404.0,meteohub,2013-01-26 19:54:00,
2013-01-26 13:59:00,71.8,62.2,30.16,ESE,112,0.0,7.0,72,0.00,,,0.00,211.0,meteohub,2013-01-26 19:59:00,
2013-01-26 14:04:00,71.6,62.4,30.16,ESE,117,0.0,7.0,73,0.00,,,0.00,536.0,meteohub,2013-01-26 20:04:00,
2013-01-26 14:09:00,71.8,62.2,30.16,ENE,57,3.0,7.0,72,0.00,,,0.00,380.0,meteohub,2013-01-26 20:09:00,
2013-01-26 14:14:00,71.8,62.2,30.15,NE,43,0.0,6.0,72,0.00,,,0.00,489.0,meteohub,2013-01-26 20:14:00,
2013-01-26 14:20:00,71.8,61.5,30.16,ENE,60,0.0,6.0,70,0.00,,,0.00,357.0,meteohub,2013-01-26 20:20:00,
2013-01-26 14:25:00,70.9,60.3,30.16,NNE,16,0.0,6.0,69,0.00,,,0.00,308.0,meteohub,2013-01-26 20:25:00,
2013-01-26 14:30:00,70.9,60.6,30.15,NNE,33,0.0,6.0,70,0.00,,,0.00,323.0,meteohub,2013-01-26 20:30:00,
2013-01-26 14:35:00,71.2,61.7,30.15,ENE,76,0.0,5.0,72,0.00,,,0.00,200.0,meteohub,2013-01-26 20:35:00,
2013-01-26 14:40:00,71.6,62.1,30.15,SE,135,0.0,5.0,72,0.00,,,0.00,262.0,meteohub,2013-01-26 20:40:00,
2013-01-26 14:45:00,70.2,59.5,30.15,NNE,13,0.0,6.0,69,0.00,,,0.00,93.0,meteohub,2013-01-26 20:45:00,
2013-01-26 14:50:00,69.3,59.5,30.15,North,0,0.0,6.0,71,0.00,,,0.00,118.0,meteohub,2013-01-26 20:50:00,
2013-01-26 14:55:00,70.0,60.1,30.15,North,359,4.0,5.0,71,0.00,,,0.00,165.0,meteohub,2013-01-26 20:55:00,
2013-01-26 15:00:00,69.6,59.7,30.14,NNE,18,0.0,5.0,71,0.00,,,0.00,114.0,meteohub,2013-01-26 21:00:00,
2013-01-26 15:05:00,69.6,59.7,30.14,North,4,1.0,5.0,71,0.00,,,0.00,118.0,meteohub,2013-01-26 21:05:00,
2013-01-26 15:10:00,69.8,59.9,30.14,NE,38,4.0,5.0,71,0.00,,,0.00,125.0,meteohub,2013-01-26 21:10:00,
2013-01-26 15:15:00,70.2,59.9,30.14,North,5,0.0,7.0,70,0.00,,,0.00,93.0,meteohub,2013-01-26 21:15:00,
2013-01-26 15:20:00,70.3,60.4,30.14,North,4,4.0,7.0,71,0.00,,,0.00,104.0,meteohub,2013-01-26 21:20:00,
2013-01-26 15:25:00,70.2,60.3,30.14,North,9,2.0,5.0,71,0.00,,,0.00,93.0,meteohub,2013-01-26 21:25:00,
2013-01-26 15:30:00,70.2,60.3,30.14,North,6,0.0,5.0,71,0.00,,,0.00,151.0,meteohub,2013-01-26 21:30:00,
2013-01-26 15:35:00,70.2,60.3,30.14,NNE,17,2.0,6.0,71,0.00,,,0.00,70.0,meteohub,2013-01-26 21:35:00,
2013-01-26 15:40:00,69.6,59.7,30.14,North,352,0.0,6.0,71,0.00,,,0.00,76.0,meteohub,2013-01-26 21:40:00,
2013-01-26 15:45:00,69.4,59.5,30.14,North,358,3.0,6.0,71,0.00,,,0.00,283.0,meteohub,2013-01-26 21:45:00,
2013-01-26 15:50:00,69.4,59.5,30.14,North,355,5.0,6.0,71,0.00,,,0.00,90.0,meteohub,2013-01-26 21:50:00,
2013-01-26 15:55:00,69.1,59.4,30.14,North,359,1.0,7.0,71,0.00,,,0.00,91.0,meteohub,2013-01-26 21:55:00,
2013-01-26 16:00:00,69.1,59.4,30.14,North,349,4.0,7.0,71,0.00,,,0.00,86.0,meteohub,2013-01-26 22:00:00,
2013-01-26 16:05:00,68.7,59.0,30.14,North,3,4.0,9.0,71,0.00,,,0.00,79.0,meteohub,2013-01-26 22:05:00,
2013-01-26 16:10:00,68.5,59.2,30.14,NNE,18,1.0,9.0,72,0.00,,,0.00,72.0,meteohub,2013-01-26 22:10:00,
2013-01-26 16:15:00,68.2,58.8,30.14,North,350,5.0,10.0,72,0.00,,,0.00,79.0,meteohub,2013-01-26 22:15:00,
2013-01-26 16:20:00,67.6,58.3,30.14,North,9,1.0,10.0,72,0.00,,,0.00,79.0,meteohub,2013-01-26 22:20:00,
2013-01-26 16:25:00,67.6,58.6,30.14,NNE,19,1.0,5.0,73,0.00,,,0.00,56.0,meteohub,2013-01-26 22:25:00,
2013-01-26 16:30:00,67.3,58.3,30.14,North,358,2.0,5.0,73,0.00,,,0.00,51.0,meteohub,2013-01-26 22:30:00,
2013-01-26 16:35:00,67.1,58.5,30.14,North,352,1.0,6.0,74,0.00,,,0.00,93.0,meteohub,2013-01-26 22:35:00,
2013-01-26 16:40:00,67.1,58.5,30.15,North,0,1.0,6.0,74,0.00,,,0.00,46.0,meteohub,2013-01-26 22:40:00,
2013-01-26 16:45:00,67.1,58.5,30.14,NNE,15,1.0,6.0,74,0.00,,,0.00,33.0,meteohub,2013-01-26 22:45:00,
2013-01-26 16:50:00,66.9,58.3,30.15,NNW,337,3.0,6.0,74,0.00,,,0.00,30.0,meteohub,2013-01-26 22:50:00,
2013-01-26 16:55:00,66.9,58.3,30.15,NNE,21,2.0,5.0,74,0.00,,,0.00,33.0,meteohub,2013-01-26 22:55:00,
2013-01-26 17:00:00,66.7,58.6,30.15,North,350,0.0,5.0,75,0.00,,,0.00,26.0,meteohub,2013-01-26 23:00:00,
2013-01-26 17:05:00,66.7,58.6,30.15,North,0,1.0,4.0,75,0.00,,,0.00,23.0,meteohub,2013-01-26 23:05:00,
2013-01-26 17:10:00,66.7,58.6,30.15,North,358,2.0,4.0,75,0.00,,,0.00,23.0,meteohub,2013-01-26 23:10:00,
2013-01-26 17:15:00,66.6,58.5,30.15,North,3,0.0,4.0,75,0.00,,,0.00,16.0,meteohub,2013-01-26 23:15:00,
2013-01-26 17:20:00,66.4,58.6,30.15,NNE,29,2.0,4.0,76,0.00,,,0.00,12.0,meteohub,2013-01-26 23:20:00,
2013-01-26 17:25:00,66.0,58.3,30.15,NNE,25,0.0,6.0,76,0.00,,,0.00,7.0,meteohub,2013-01-26 23:25:00,
2013-01-26 17:30:00,65.8,58.1,30.15,NNW,347,1.0,6.0,76,0.00,,,0.00,5.0,meteohub,2013-01-26 23:30:00,
2013-01-26 17:35:00,65.7,58.3,30.15,NNW,344,3.0,6.0,77,0.00,,,0.00,0.0,meteohub,2013-01-26 23:35:00,
2013-01-26 17:40:00,65.3,57.9,30.16,North,1,0.0,6.0,77,0.00,,,0.00,0.0,meteohub,2013-01-26 23:40:00,
2013-01-26 17:46:00,64.9,57.6,30.16,NNE,26,0.0,6.0,77,0.00,,,0.00,0.0,meteohub,2013-01-26 23:46:00,
2013-01-26 17:51:00,64.8,57.7,30.16,NNE,22,0.0,6.0,78,0.00,,,0.00,0.0,meteohub,2013-01-26 23:51:00,
2013-01-26 17:56:00,64.4,57.4,30.16,North,356,0.0,5.0,78,0.00,,,0.00,0.0,meteohub,2013-01-26 23:56:00,
2013-01-26 18:01:00,64.0,57.0,30.16,North,355,0.0,5.0,78,0.00,,,0.00,0.0,meteohub,2013-01-27 00:01:00,
2013-01-26 18:06:00,63.9,57.2,30.16,North,0,0.0,6.0,79,0.00,,,0.00,0.0,meteohub,2013-01-27 00:06:00,
2013-01-26 18:11:00,63.5,56.8,30.16,North,0,0.0,6.0,79,0.00,,,0.00,0.0,meteohub,2013-01-27 00:11:00,
2013-01-26 18:16:00,63.1,56.8,30.16,North,354,0.0,5.0,80,0.00,,,0.00,0.0,meteohub,2013-01-27 00:16:00,
2013-01-26 18:21:00,63.0,57.0,30.16,North,358,0.0,5.0,81,0.00,,,0.00,0.0,meteohub,2013-01-27 00:21:00,
2013-01-26 18:26:00,62.8,56.8,30.17,North,9,0.0,5.0,81,0.00,,,0.00,0.0,meteohub,2013-01-27 00:26:00,
2013-01-26 18:31:00,62.6,56.7,30.16,North,9,0.0,5.0,81,0.00,,,0.00,0.0,meteohub,2013-01-27 00:31:00,
2013-01-26 18:36:00,62.4,56.8,30.17,NNE,21,0.0,5.0,82,0.00,,,0.00,0.0,meteohub,2013-01-27 00:36:00,
2013-01-26 18:41:00,62.2,56.7,30.17,NNE,21,0.0,4.0,82,0.00,,,0.00,0.0,meteohub,2013-01-27 00:41:00,
2013-01-26 18:46:00,62.2,56.7,30.17,NNE,18,0.0,4.0,82,0.00,,,0.00,0.0,meteohub,2013-01-27 00:46:00,
2013-01-26 18:51:00,62.1,56.8,30.17,North,11,0.0,4.0,83,0.00,,,0.00,0.0,meteohub,2013-01-27 00:51:00,
2013-01-26 18:56:00,61.9,56.7,30.17,North,9,0.0,4.0,83,0.00,,,0.00,0.0,meteohub,2013-01-27 00:56:00,
2013-01-26 19:01:00,61.7,56.5,30.17,NNE,12,0.0,4.0,83,0.00,,,0.00,0.0,meteohub,2013-01-27 01:01:00,
2013-01-26 19:06:00,61.5,56.7,30.17,North,11,0.0,4.0,84,0.00,,,0.00,0.0,meteohub,2013-01-27 01:06:00,
2013-01-26 19:11:00,61.3,56.5,30.17,North,11,0.0,4.0,84,0.00,,,0.00,0.0,meteohub,2013-01-27 01:11:00,
2013-01-26 19:16:00,61.2,56.7,30.17,North,356,0.0,4.0,85,0.00,,,0.00,0.0,meteohub,2013-01-27 01:16:00,
2013-01-26 19:21:00,61.0,56.5,30.18,NNE,17,0.0,4.0,85,0.00,,,0.00,0.0,meteohub,2013-01-27 01:21:00,
2013-01-26 19:26:00,60.8,56.7,30.18,NNE,27,0.0,4.0,86,0.00,,,0.00,0.0,meteohub,2013-01-27 01:26:00,
2013-01-26 19:31:00,60.6,56.5,30.18,NNE,19,0.0,4.0,86,0.00,,,0.00,0.0,meteohub,2013-01-27 01:31:00,
2013-01-26 19:36:00,60.4,56.3,30.18,NNE,29,0.0,4.0,86,0.00,,,0.00,0.0,meteohub,2013-01-27 01:36:00,
2013-01-26 19:41:00,60.4,56.5,30.18,NNE,32,0.0,4.0,87,0.00,,,0.00,0.0,meteohub,2013-01-27 01:41:00,
2013-01-26 19:46:00,60.3,56.3,30.18,North,4,1.0,5.0,87,0.00,,,0.00,0.0,meteohub,2013-01-27 01:46:00,
2013-01-26 19:51:00,60.1,56.1,30.18,NNE,18,0.0,5.0,87,0.00,,,0.00,0.0,meteohub,2013-01-27 01:51:00,
2013-01-26 19:56:00,59.7,56.1,30.18,North,7,0.0,4.0,88,0.00,,,0.00,0.0,meteohub,2013-01-27 01:56:00,
2013-01-26 20:01:00,59.5,55.9,30.18,NE,36,0.0,4.0,88,0.00,,,0.00,0.0,meteohub,2013-01-27 02:01:00,
2013-01-26 20:06:00,59.4,55.8,30.18,North,1,3.0,3.0,88,0.00,,,0.00,0.0,meteohub,2013-01-27 02:06:00,
2013-01-26 20:11:00,59.2,55.9,30.18,North,352,0.0,3.0,89,0.00,,,0.00,0.0,meteohub,2013-01-27 02:11:00,
2013-01-26 20:16:00,59.0,55.8,30.18,NNE,14,0.0,5.0,89,0.00,,,0.00,0.0,meteohub,2013-01-27 02:16:00,
2013-01-26 20:21:00,59.0,55.8,30.18,NNW,344,0.0,5.0,89,0.00,,,0.00,0.0,meteohub,2013-01-27 02:21:00,
2013-01-26 20:26:00,58.8,55.6,30.19,North,358,0.0,5.0,89,0.00,,,0.00,0.0,meteohub,2013-01-27 02:26:00,
2013-01-26 20:31:00,58.6,55.8,30.19,North,356,0.0,5.0,90,0.00,,,0.00,0.0,meteohub,2013-01-27 02:31:00,
2013-01-26 20:36:00,58.5,55.6,30.19,NNE,28,0.0,4.0,90,0.00,,,0.00,0.0,meteohub,2013-01-27 02:36:00,
2013-01-26 20:41:00,58.3,55.4,30.19,NNE,28,0.0,4.0,90,0.00,,,0.00,0.0,meteohub,2013-01-27 02:41:00,
2013-01-26 20:46:00,58.1,55.4,30.19,North,3,0.0,3.0,91,0.00,,,0.00,0.0,meteohub,2013-01-27 02:46:00,
2013-01-26 20:52:00,57.7,55.2,30.19,North,8,1.0,3.0,91,0.00,,,0.00,0.0,meteohub,2013-01-27 02:52:00,
2013-01-26 20:57:00,57.7,55.2,30.19,North,6,0.0,4.0,91,0.00,,,0.00,0.0,meteohub,2013-01-27 02:57:00,
2013-01-26 21:02:00,57.6,55.0,30.19,North,6,0.0,4.0,91,0.00,,,0.00,0.0,meteohub,2013-01-27 03:02:00,
2013-01-26 21:07:00,57.6,55.0,30.19,North,7,0.0,3.0,91,0.00,,,0.00,0.0,meteohub,2013-01-27 03:07:00,
2013-01-26 21:12:00,57.4,54.9,30.19,North,356,1.0,3.0,91,0.00,,,0.00,0.0,meteohub,2013-01-27 03:12:00,
2013-01-26 21:17:00,57.0,54.5,30.19,North,0,2.0,3.0,91,0.00,,,0.00,0.0,meteohub,2013-01-27 03:17:00,
2013-01-26 21:22:00,57.0,54.7,30.19,North,6,0.0,3.0,92,0.00,,,0.00,0.0,meteohub,2013-01-27 03:22:00,
2013-01-26 21:27:00,56.8,54.5,30.19,NNE,33,0.0,3.0,92,0.00,,,0.00,0.0,meteohub,2013-01-27 03:27:00,
2013-01-26 21:32:00,56.7,54.3,30.19,NNE,32,0.0,3.0,92,0.00,,,0.00,0.0,meteohub,2013-01-27 03:32:00,
2013-01-26 21:37:00,56.7,54.3,30.19,NNE,33,0.0,3.0,92,0.00,,,0.00,0.0,meteohub,2013-01-27 03:37:00,
2013-01-26 21:42:00,56.5,54.1,30.19,NNE,32,0.0,3.0,92,0.00,,,0.00,0.0,meteohub,2013-01-27 03:42:00,
2013-01-26 21:47:00,56.5,54.1,30.19,NNE,33,0.0,1.0,92,0.00,,,0.00,0.0,meteohub,2013-01-27 03:47:00,
2013-01-26 21:52:00,56.1,53.8,30.19,NNE,33,0.0,1.0,92,0.00,,,0.00,0.0,meteohub,2013-01-27 03:52:00,
2013-01-26 21:57:00,56.1,54.1,30.19,NNE,33,0.0,1.0,93,0.00,,,0.00,0.0,meteohub,2013-01-27 03:57:00,
2013-01-26 22:02:00,55.9,54.0,30.19,NNE,33,0.0,1.0,93,0.00,,,0.00,0.0,meteohub,2013-01-27 04:02:00,
2013-01-26 22:07:00,55.6,53.6,30.19,NNE,33,0.0,1.0,93,0.00,,,0.00,0.0,meteohub,2013-01-27 04:07:00,
2013-01-26 22:12:00,55.2,53.2,30.19,NNE,33,0.0,1.0,93,0.00,,,0.00,0.0,meteohub,2013-01-27 04:12:00,
2013-01-26 22:17:00,55.0,53.1,30.19,NNE,33,0.0,1.0,93,0.00,,,0.00,0.0,meteohub,2013-01-27 04:17:00,
2013-01-26 22:22:00,54.9,53.2,30.19,NNE,33,0.0,1.0,94,0.00,,,0.00,0.0,meteohub,2013-01-27 04:22:00,
2013-01-26 22:27:00,54.9,53.2,30.19,NNE,33,0.0,0.0,94,0.00,,,0.00,0.0,meteohub,2013-01-27 04:27:00,
2013-01-26 22:32:00,54.7,53.1,30.19,NNE,33,0.0,0.0,94,0.00,,,0.00,0.0,meteohub,2013-01-27 04:32:00,
2013-01-26 22:37:00,54.5,52.9,30.19,NNE,33,0.0,0.0,94,0.00,,,0.00,0.0,meteohub,2013-01-27 04:37:00,
2013-01-26 22:42:00,54.3,52.7,30.19,NNE,33,0.0,0.0,94,0.00,,,0.00,0.0,meteohub,2013-01-27 04:42:00,
2013-01-26 22:47:00,54.1,52.5,30.19,NNE,33,0.0,0.0,94,0.00,,,0.00,0.0,meteohub,2013-01-27 04:47:00,
2013-01-26 22:52:00,54.0,52.5,30.20,NNE,33,0.0,0.0,95,0.00,,,0.00,0.0,meteohub,2013-01-27 04:52:00,
2013-01-26 22:57:00,53.8,52.3,30.20,NNE,33,0.0,0.0,95,0.00,,,0.00,0.0,meteohub,2013-01-27 04:57:00,
2013-01-26 23:00:00,53.8,52.3,30.20,NNE,33,0.0,0.0,95,0.00,,,0.00,0.0,meteohub,2013-01-27 05:00:00,
2013-01-26 23:01:00,53.8,52.3,30.20,NNE,33,0.0,0.0,95,0.00,,,0.00,0.0,meteohub,2013-01-27 05:01:00,
2013-01-26 23:04:00,53.4,52.0,30.20,NNE,33,0.0,0.0,95,0.00,,,0.00,0.0,meteohub,2013-01-27 05:04:00,
2013-01-26 23:09:00,53.4,52.0,30.20,NNE,33,0.0,0.0,95,0.00,,,0.00,0.0,meteohub,2013-01-27 05:09:00,
2013-01-26 23:14:00,53.4,52.0,30.19,NNE,33,0.0,0.0,95,0.00,,,0.00,0.0,meteohub,2013-01-27 05:14:00,
2013-01-26 23:19:00,53.2,51.8,30.19,NNE,33,0.0,0.0,95,0.00,,,0.00,0.0,meteohub,2013-01-27 05:19:00,
2013-01-26 23:24:00,53.1,51.6,30.19,NNE,33,0.0,0.0,95,0.00,,,0.00,0.0,meteohub,2013-01-27 05:24:00,
2013-01-26 23:29:00,53.1,51.6,30.19,NNE,33,0.0,0.0,95,0.00,,,0.00,0.0,meteohub,2013-01-27 05:29:00,
2013-01-26 23:34:00,52.9,51.8,30.19,NNE,33,0.0,0.0,96,0.00,,,0.00,0.0,meteohub,2013-01-27 05:34:00,
2013-01-26 23:39:00,52.7,51.3,30.19,NNE,33,0.0,0.0,95,0.00,,,0.00,0.0,meteohub,2013-01-27 05:39:00,
2013-01-26 23:44:00,52.5,51.4,30.19,NNE,33,0.0,0.0,96,0.00,,,0.00,0.0,meteohub,2013-01-27 05:44:00,
2013-01-26 23:49:00,52.5,51.4,30.19,NNE,33,0.0,0.0,96,0.00,,,0.00,0.0,meteohub,2013-01-27 05:49:00,
2013-01-26 23:54:00,52.5,51.4,30.19,NNE,33,0.0,0.0,96,0.00,,,0.00,0.0,meteohub,2013-01-27 05:54:00,
2013-01-26 23:59:00,52.5,51.4,30.19,NNE,33,0.0,0.0,96,0.00,,,0.00,0.0,meteohub,2013-01-27 05:59:00,